Regional Weather Roundup
Issued by NWS

Home | Current Version | Previous Version | Graphics & Text | Print | Product List | Glossary On
Versions: 1 2 3 4 5 6 7 8 9 10 11 12 13 14 15 16 17 18 19 20 21 22 23 24 25 26 27 28 29 30 31 32 33 34 35 36 37 38 39 40 41 42 43 44 45 46 47 48 49 50
000
ASUS43 KBIS 301910
RWRND

NORTH DAKOTA REGIONAL WEATHER ROUNDUP
NATIONAL WEATHER SERVICE BISMARCK ND
200 PM CDT SUN APR 30 2017

NOTE: "FAIR" INDICATES FEW OR NO CLOUDS BELOW 12,000 FEET WITH NO
SIGNIFICANT WEATHER AND/OR OBSTRUCTIONS TO VISIBILITY.


NDZ001>003-009>011-017-302000-
NORTHWEST NORTH DAKOTA

CITY           SKY/WX    TMP DP  RH WIND       PRES   REMARKS
WILLISTON      FAIR      66  20  17 S9G16     29.89F
MINOT          FAIR      67  21  17 E9        29.92F
MINOT AFB      SUNNY     66  24  20 SE14      29.91F
$$

NDZ018>021-031>035-040>046-302000-
SOUTHWEST NORTH DAKOTA

CITY           SKY/WX    TMP DP  RH WIND       PRES   REMARKS
BISMARCK       FAIR      63  26  24 VRB3      29.96F
DICKINSON      FAIR      61  16  17 SE9G20    29.92F
GARRISON         N/A     61  19  19 VRB6      29.95F
HETTINGER ARPT SUNNY     60  21  22 E8        29.96F
$$

NDZ004>008-012>016-024-026-027-054-302000-
NORTHEAST NORTH DAKOTA

CITY           SKY/WX    TMP DP  RH WIND       PRES   REMARKS
GRAND FORKS    MOSUNNY   62  27  26 E10       30.00F
GRND FRKS AFB  SUNNY     60  25  26 SE8       30.00F
DEVILS LAKE    FAIR      59  26  28 SE15      30.00F
$$

NDZ022-023-025-028>030-036>039-047>053-302000-
SOUTHEAST NORTH DAKOTA

CITY           SKY/WX    TMP DP  RH WIND       PRES   REMARKS
FARGO          MOSUNNY   61  16  17 E15G24    29.96F
JAMESTOWN      FAIR      59  25  27 E12G21    29.96F
$$




USA.gov is the U.S. government's official web portal to all federal, state and local government web resources and services.